Weather History for PAOM - April, 2012

Change the Weather History Date:

Thursday, April 26, 2012

  Actual Average Record
Temperature  
Mean Temperature 35 °F 27 °F  
Max Temperature 42 °F 33 °F 52 °F (1940)
Min Temperature 27 °F 20 °F -15 °F (1964)
Degree Days  
Heating Degree Days 30 38  
Month to date heating degree days 1173 1187  
Since 1 July heating degree days 13570 12165  
Cooling Degree Days 0    
Month to date cooling degree days 0  
Year to date cooling degree days 0  
Moisture  
Dew Point 27 °F    
Average Humidity 0    
Maximum Humidity 0    
Minimum Humidity 0    
Precipitation  
Precipitation 0.00 in 0.03 in 0.22 in (1937)
Month to date precipitation 0.33 0.65  
Year to date precipitation 1.90 3.17  
Snow  
Snow 0.00 in 0.20 in 2.20 in (1937)
Month to date snowfall 6.3 6.8  
Since 1 July snowfall 79.6 72.4  
Snow Depth 18.00 in    
Sea Level Pressure  
Sea Level Pressure 29.96 in    
Wind  
Wind Speed 3 mph (West)    
Max Wind Speed 10 mph    
Max Gust Speed 12 mph    
Visibility 10 miles    
Events      
T = Trace of Precipitation, MM = Missing Value Source: NWS Daily Summary

Daily Weather History Graph

Daily Weather History Graph

Search for Another Location

Airport or City:

Trip Planner

Search our weather history database for the weather conditions in past years. The results will help you decide how hot, cold, wet, or windy it might be!

Date:

Astronomy

Apr. 26, 2012 Rise Set
Actual Time 6:46 AM AKDT 11:14 PM AKDT
Civil Twilight 5:40 AM AKDT 12:22 AM AKDT
Nautical Twilight 3:31 AM AKDT 2:26 AM AKDT
Astronomical Twilight Sun does not rise Sun does not rise
Moon 9:39 AM AKDT (4/26) 4:28 AM AKDT (4/26)
Length of Visible Light 18h 41m
Length of Day
16h 28m
Waxing Crescent, 25% of the Moon is Illuminated
Apr 26
Waxing Crescent
Apr 29
First Quarter
May 5
Full
May 12
Last Quarter
May 20
New

Hourly Weather History & Observations

Time (AKDT) Temp. Windchill Dew Point Humidity Pressure Visibility Wind Dir Wind Speed Gust Speed Precip Events Conditions
12:53 AM 30.9 °F - 26.1 °F 82% 30.00 in 10.0 mi Calm Calm - N/A   Scattered Clouds
1:53 AM 30.9 °F 27.5 °F 26.1 °F 82% 29.99 in 10.0 mi NNE 3.5 mph - N/A   Scattered Clouds
2:53 AM 32.0 °F - 26.1 °F 79% 29.99 in 10.0 mi Calm Calm - N/A   Scattered Clouds
3:53 AM 32.0 °F 23.6 °F 25.0 °F 75% 29.99 in 10.0 mi NNW 10.4 mph - N/A   Scattered Clouds
4:53 AM 32.0 °F 28.7 °F 25.0 °F 75% 29.98 in 10.0 mi North 3.5 mph - N/A   Scattered Clouds
5:53 AM 30.0 °F - 25.0 °F 82% 29.98 in 10.0 mi Calm Calm - N/A   Scattered Clouds
6:53 AM 28.0 °F - 25.0 °F 88% 29.97 in 10.0 mi Calm Calm - N/A   Scattered Clouds
7:53 AM 28.9 °F - 25.0 °F 85% 29.98 in 10.0 mi Calm Calm - N/A   Mostly Cloudy
8:53 AM 30.9 °F - 26.1 °F 82% 29.98 in 10.0 mi Calm Calm - N/A   Mostly Cloudy
9:53 AM 32.0 °F 28.7 °F 26.1 °F 79% 29.98 in 10.0 mi SW 3.5 mph - N/A   Partly Cloudy
10:53 AM 30.9 °F - 26.1 °F 82% 29.98 in 10.0 mi Calm Calm - N/A   Clear
11:53 AM 36.0 °F - 27.0 °F 70% 29.97 in 10.0 mi Calm Calm - N/A   Clear
12:53 PM 36.0 °F 32.1 °F 30.0 °F 79% 29.98 in 10.0 mi SSW 4.6 mph - N/A   Clear
1:53 PM 36.0 °F 31.1 °F 28.9 °F 76% 29.97 in 10.0 mi SSW 5.8 mph - N/A   Clear
2:53 PM 35.1 °F 32.2 °F 28.9 °F 78% 29.97 in 10.0 mi SSW 3.5 mph - N/A   Clear
3:53 PM 37.0 °F 32.4 °F 28.9 °F 73% 29.96 in 10.0 mi SW 5.8 mph - N/A   Clear
4:53 PM 37.0 °F 33.3 °F 28.9 °F 73% 29.95 in 10.0 mi WSW 4.6 mph - N/A   Clear
5:53 PM 37.9 °F 35.5 °F 28.9 °F 70% 29.93 in 10.0 mi Variable 3.5 mph - N/A   Clear
6:53 PM 37.9 °F 33.5 °F 30.9 °F 76% 29.92 in 10.0 mi WNW 5.8 mph - N/A   Scattered Clouds
7:53 PM 41.0 °F - 28.0 °F 60% 29.92 in 10.0 mi Calm Calm - N/A   Scattered Clouds
8:53 PM 39.9 °F 35.1 °F 25.0 °F 55% 29.92 in 10.0 mi North 6.9 mph - N/A   Scattered Clouds
9:53 PM 34.0 °F 31.0 °F 30.9 °F 89% 29.91 in 10.0 mi South 3.5 mph - N/A   Scattered Clouds
10:53 PM 34.0 °F 29.8 °F 30.0 °F 85% 29.91 in 10.0 mi North 4.6 mph - N/A   Scattered Clouds
11:53 PM 34.0 °F 29.8 °F 24.1 °F 67% 29.91 in 10.0 mi ENE 4.6 mph - N/A   Scattered Clouds